{"data":{"norad_id":65411,"intl_designator":"2025-192H","name":"STARLINK-34983","alt_names":[],"object_type":"PAYLOAD","status":"ACTIVE","operator":null,"country":"US","launch_date":"2025-08-31","launch_site_code":"AFETR","launch_vehicle":null,"mission":null,"orbit_class":"UNKNOWN","rcs_meters":null,"size_class":null,"mass_kg":null,"dimensions":null,"purposes":["comms"],"wikipedia_slug":null,"has_3d_model":false,"image_url":null,"decayed_at":null,"tle_current":{"epoch":"2026-05-24T23:46:42.369024Z","epoch_age_seconds":86013,"freshness":"FRESH","line1":"1 65411U 25192H   26144.99076816  .00017356  00000+0  56955-3 0  9993","line2":"2 65411  53.1584 237.4168 0001052  76.8995 283.2124 15.31710744 41075","mean_motion":15.31710744,"eccentricity":0.0001052,"inclination_deg":53.1584,"raan_deg":237.4168,"arg_perigee_deg":76.8995,"mean_anomaly_deg":283.2124,"bstar":0.00056955,"rev_number":4107,"period_min":94.012528516938,"perigee_km":469.98746961729,"apogee_km":471.42846659858,"semimajor_km":6848.8449681079,"source":"CELESTRAK","updated_at":"2026-05-25T13:38:20.800730Z"}}}